Cloud_Cover
51 76 59 61 20 21 4 1 0 3 5 4 4 2 0 0 0 1 1 27 0 0 0 0 0 0 0 0 0 0 0 0 0 0 0 0 0 0 0 5 5 1 2
15 24 59 100 100 10 24 5 2 0 5 4 5 5 3 3 4 0 0 0 0 0 0 0 0 0 0 0 0 0 0 0 0 0 0 0 0 0 0 0 4 5 3
12 21 62 70 100 100 25 7 5 3 0 1 4 5 5 5 5 5 5 5 2 2 2 0 0 0 0 0 0 0 0 0 0 0 0 0 0 0 0 0 0 0 1
5 5 13 5 87 100 86 38 5 5 5 5 29 24 5 47 42 5 5 5 5 5 4 0 0 0 0 0 0 0 0 0 0 0 0 0 0 0 0 0 0 0 0
5 5 5 5 9 77 100 23 5 5 58 42 30 53 23 49 11 65 68 20 57 51 73 94 5 3 3 0 5 3 0 0 0 0 0 0 0 0 0 0 0 0 0
15 24 27 5 65 29 91 41 5 5 13 7 25 74 65 97 100 91 66 96 100 100 100 79 89 5 4 5 7 5 5 5 0 0 0 0 0 0 0 0 2 0 0
58 40 31 12 11 81 100 98 78 53 90 39 40 25 85 100 100 68 98 98 100 100 100 100 87 100 77 81 58 100 24 5 5 5 0 0 0 0 0 5 0 0 0
33 67 100 98 100 100 92 89 50 80 91 66 15 32 9 34 90 22 47 100 100 100 100 100 100 100 100 100 86 100 100 97 5 5 3 3 0 0 1 3 5 4 2
38 97 84 68 78 93 73 35 73 58 18 44 56 43 76 80 100 99 88 100 100 100 100 100 100 100 100 100 100 100 100 75 28 5 6 5 3 0 1 0 1 4 5
10 80 100 100 100 99 100 100 100 100 100 100 99 100 100 100 100 100 100 100 100 100 100 100 100 100 100 100 100 91 100 87 92 62 100 96 37 5 5 4 1 3 5
35 54 100 100 100 100 100 100 100 100 100 100 100 100 100 100 100 100 100 100 100 100 100 100 100 100 100 100 99 100 100 100 100 100 100 100 57 6 5 3 5 5 4
53 90 100 100 100 100 100 75 74 93 100 100 100 100 100 100 100 100 100 100 100 100 100 100 100 100 100 100 100 100 100 100 100 89 99 100 100 100 13 5 5 5 5
34 89 84 100 100 100 100 100 100 73 24 74 100 100 100 100 100 100 100 100 100 100 100 100 100 100 100 100 100 100 100 100 100 100 100 100 100 79 8 5 5 5 5
59 68 12 62 100 100 100 100 100 100 100 52 12 99 100 100 100 100 100 100 100 100 100 100 100 100 100 100 100 100 100 100 100 100 38 57 48 61 6 5 5 5 12
0 0 57 36 100 100 100 100 100 100 100 100 100 100 100 100 100 100 100 100 100 100 100 100 100 100 100 100 100 100 100 100 100 100 97 54 36 74 49 28 6 5 5
5 37 64 94 100 100 100 100 100 100 100 100 100 100 100 100 100 100 100 100 100 100 100 100 100 100 100 100 100 100 100 100 100 100 100 100 96 74 50 91 94 48 42
93 86 100 100 100 100 100 100 100 100 100 100 100 100 100 100 100 100 100 100 100 100 100 100 100 100 100 100 100 100 100 100 100 100 90 100 100 100 100 85 74 73 45
100 100 100 100 99 100 100 100 100 100 100 100 100 100 100 100 100 100 100 100 100 100 100 100 100 100 100 100 100 100 100 100 100 100 100 100 100 100 100 100 88 98 88
54 38 38 97 98 95 100 100 100 100 100 100 100 100 100 100 100 100 100 100 100 100 100 100 100 100 100 100 100 100 100 100 69 100 100 97 100 100 100 100 100 100 100
8 42 24 19 38 100 100 100 100 100 100 100 100 100 100 100 100 100 100 100 100 100 100 100 100 100 100 100 100 100 100 96 100 100 100 99 100 100 100 100 100 100 100
12 38 27 40 70 76 100 100 100 100 100 100 100 100 100 100 100 100 100 100 100 100 100 100 100 100 100 100 96 97 99 100 100 100 100 100 92 73 98 96 100 82 71
100 100 100 100 80 93 99 100 100 100 100 100 100 100 100 100 100 100 100 100 100 100 100 100 99 92 100 100 100 100 100 100 100 100 80 100 100 100 100 98 7 5 5
100 100 100 100 100 100 100 100 100 100 100 100 100 100 100 100 100 100 100 100 100 100 90 100 97 100 100 100 100 100 100 100 100 99 55 100 100 100 49 5 3 5 5
100 100 100 100 100 100 100 100 100 100 100 100 100 100 100 100 100 100 100 100 100 100 100 100 100 100 100 100 99 98 100 100 100 93 69 100 27 5 0 0 0 5 5
100 100 100 100 100 100 100 100 100 100 100 100 100 100 100 100 100 100 100 100 100 100 100 100 100 100 100 100 100 100 98 58 62 19 5 8 4 5 3 0 0 0 3
100 100 100 100 99 98 92 99 100 100 100 100 100 100 100 100 100 100 100 100 100 100 100 100 100 100 100 71 46 41 10 5 90 97 47 5 5 15 44 0 2 0 0